| time (UTC) | temp C | wind direction | speed KPH | gust KPH | rain 1hr cm | rain 24hr cm | rain mn cm | humidity % | barometer mb |
| 20260510044526 | 17 | 360 | 9.7 | 20.9 | 0.20 | 0.25 | 0.25 | 87 | 1010.0 |
| 20260510043026 | 17 | 360 | 3.2 | 9.7 | 0.23 | 0.23 | 0.23 | 86 | 1010.6 |
| 20260510041533 | 18 | 360 | 8.0 | 20.9 | 0.23 | 0.23 | 0.23 | 84 | 1011.7 |
| 20260510040024 | 18 | 360 | 8.0 | 27.4 | 0.15 | 0.15 | 0.15 | 79 | 1012.2 |
| 20260510034526 | 21 | 360 | 16.1 | 35.4 | 0.05 | 0.05 | 0.05 | 70 | 1011.8 |
| 20260510033017 | 25 | 360 | 4.8 | 12.9 | 0.00 | 0.00 | 0.00 | 56 | 1008.8 |
| 20260510031517 | 25 | 360 | 6.4 | 17.7 | 0.00 | 0.00 | 0.00 | 52 | 1006.2 |
| 20260510030016 | 25 | 360 | 6.4 | 20.9 | 0.00 | 0.00 | 0.00 | 52 | 1006.2 |
| 20260510024520 | 25 | 360 | 6.4 | 16.1 | 0.00 | 0.00 | 0.00 | 52 | 1006.2 |
| 20260510023015 | 25 | 360 | 4.8 | 12.9 | 0.00 | 0.00 | 0.00 | 51 | 1006.5 |
| 20260510021516 | 25 | 360 | 3.2 | 12.9 | 0.00 | 0.00 | 0.00 | 51 | 1006.5 |
| 20260510020013 | 25 | 360 | 4.8 | 17.7 | 0.00 | 0.00 | 0.00 | 51 | 1006.0 |
| 20260510014513 | 25 | 360 | 4.8 | 16.1 | 0.00 | 0.00 | 0.00 | 50 | 1005.1 |
| 20260510013011 | 25 | 360 | 3.2 | 12.9 | 0.00 | 0.00 | 0.00 | 49 | 1005.3 |
| 20260510011510 | 25 | 360 | 3.2 | 8.0 | 0.00 | 0.00 | 0.00 | 46 | 1005.5 |
| 20260510010008 | 26 | 360 | 3.2 | 8.0 | 0.00 | 0.00 | 0.00 | 46 | 1005.6 |
| 20260510004508 | 26 | 360 | 3.2 | 8.0 | 0.00 | 0.03 | 0.00 | 45 | 1005.7 |
| 20260510003008 | 26 | 360 | 3.2 | 8.0 | 0.00 | 0.03 | 0.00 | 44 | 1005.9 |
| 20260510001507 | 27 | 119 | 4.8 | 16.1 | 0.00 | 0.03 | 0.00 | 44 | 1005.6 |
| 20260510000005 | 27 | 128 | 3.2 | 11.3 | 0.00 | 0.03 | 0.00 | 43 | 1005.8 |
| 20260509234505 | 27 | 146 | 4.8 | 12.9 | 0.00 | 0.03 | 0.00 | 43 | 1005.7 |
| 20260509233003 | 28 | 182 | 4.8 | 14.5 | 0.00 | 0.03 | 0.00 | 41 | 1005.7 |
| 20260509231502 | 28 | 161 | 8.0 | 19.3 | 0.00 | 0.03 | 0.00 | 39 | 1005.8 |
| 20260509230100 | 29 | 146 | 6.4 | 19.3 | 0.00 | 0.03 | 0.00 | 38 | 1006.0 |
| 20260509224559 | 29 | 119 | 6.4 | 16.1 | 0.00 | 0.30 | 0.00 | 39 | 1006.0 |
| 20260509223057 | 29 | 176 | 4.8 | 14.5 | 0.00 | 0.30 | 0.00 | 38 | 1006.4 |
| 20260509221555 | 30 | 99 | 4.8 | 12.9 | 0.00 | 0.30 | 0.00 | 37 | 1006.6 |
| 20260509220056 | 30 | 164 | 3.2 | 16.1 | 0.00 | 0.30 | 0.00 | 38 | 1006.7 |
| 20260509214554 | 30 | 154 | 4.8 | 11.3 | 0.00 | 0.30 | 0.00 | 37 | 1006.6 |
| 20260509213052 | 30 | 185 | 1.6 | 11.3 | 0.00 | 0.30 | 0.00 | 37 | 1006.8 |
| 20260509211550 | 30 | 170 | 3.2 | 12.9 | 0.00 | 0.30 | 0.00 | 36 | 1006.9 |
| 20260509210053 | 30 | 126 | 6.4 | 14.5 | 0.00 | 0.30 | 0.00 | 33 | 1007.2 |
| 20260509204552 | 30 | 148 | 3.2 | 9.7 | 0.00 | 0.30 | 0.00 | 34 | 1007.2 |
| 20260509203044 | 30 | 141 | 3.2 | 12.9 | 0.00 | 0.30 | 0.00 | 35 | 1007.5 |
| 20260509201542 | 29 | 269 | 3.2 | 11.3 | 0.00 | 0.30 | 0.00 | 37 | 1007.6 |
| 20260509200044 | 29 | 180 | 1.6 | 6.4 | 0.00 | 0.30 | 0.00 | 34 | 1007.8 |
| 20260509194538 | 29 | 167 | 3.2 | 8.0 | 0.00 | 0.30 | 0.00 | 33 | 1008.1 |
| 20260509193037 | 29 | 204 | 4.8 | 11.3 | 0.00 | 0.30 | 0.00 | 37 | 1008.3 |
| 20260509191533 | 28 | 166 | 1.6 | 8.0 | 0.00 | 0.30 | 0.00 | 36 | 1008.4 |
| 20260509190031 | 28 | 104 | 1.6 | 9.7 | 0.00 | 0.30 | 0.00 | 39 | 1008.5 |
| 20260509184537 | 28 | 140 | 3.2 | 11.3 | 0.00 | 0.30 | 0.00 | 40 | 1008.8 |
| 20260509183026 | 28 | 119 | 1.6 | 9.7 | 0.00 | 0.30 | 0.00 | 42 | 1008.9 |
| 20260509181523 | 27 | 186 | 3.2 | 9.7 | 0.00 | 0.30 | 0.00 | 45 | 1009.0 |
| 20260509180023 | 27 | 205 | 4.8 | 11.3 | 0.00 | 0.30 | 0.00 | 47 | 1009.3 |
| 20260509174520 | 27 | 170 | 1.6 | 11.3 | 0.00 | 0.30 | 0.00 | 47 | 1009.4 |
| 20260509173019 | 27 | 175 | 4.8 | 12.9 | 0.00 | 0.30 | 0.00 | 51 | 1009.8 |
| 20260509171517 | 26 | 157 | 1.6 | 11.3 | 0.00 | 0.30 | 0.00 | 51 | 1010.0 |
| 20260509170016 | 26 | 277 | 3.2 | 8.0 | 0.00 | 0.30 | 0.00 | 51 | 1010.2 |
| 20260509164513 | 26 | 229 | 3.2 | 8.0 | 0.00 | 0.30 | 0.00 | 48 | 1010.3 |
| 20260509163010 | 26 | 137 | 3.2 | 6.4 | 0.00 | 0.30 | 0.00 | 50 | 1010.2 |
| 20260509161507 | 25 | 146 | 3.2 | 11.3 | 0.00 | 0.30 | 0.00 | 55 | 1010.4 |
| 20260509160005 | 25 | 156 | 3.2 | 11.3 | 0.00 | 0.30 | 0.00 | 56 | 1010.4 |
| 20260509154504 | 25 | 163 | 3.2 | 9.7 | 0.00 | 0.30 | 0.00 | 54 | 1010.2 |
| 20260509153105 | 23 | 169 | 3.2 | 11.3 | 0.00 | 0.30 | 0.00 | 54 | 1010.1 |
| 20260509151558 | 22 | 109 | 3.2 | 9.7 | 0.00 | 0.30 | 0.00 | 68 | 1010.2 |
| 20260509150055 | 22 | 137 | 3.2 | 4.8 | 0.00 | 0.30 | 0.00 | 73 | 1010.2 |
| 20260509144549 | 21 | 137 | 1.6 | 6.4 | 0.00 | 0.30 | 0.00 | 76 | 1010.1 |
| 20260509143051 | 21 | 138 | 1.6 | 4.8 | 0.00 | 0.30 | 0.00 | 80 | 1009.8 |
| 20260509141551 | 20 | 140 | 0.0 | 4.8 | 0.00 | 0.30 | 0.00 | 86 | 1010.1 |
| 20260509140047 | 18 | 169 | 1.6 | 6.4 | 0.00 | 0.30 | 0.00 | 93 | 1010.1 |
| 20260509134533 | 17 | 169 | 0.0 | 0.0 | 0.00 | 0.30 | 0.00 | 96 | 1010.1 |
| 20260509133029 | 16 | 169 | 0.0 | 0.0 | 0.00 | 0.30 | 0.00 | 96 | 1009.9 |
| 20260509131535 | 15 | 169 | 0.0 | 0.0 | 0.00 | 0.30 | 0.00 | 96 | 1009.8 |
| 20260509130031 | 14 | 169 | 0.0 | 0.0 | 0.00 | 0.30 | 0.00 | 96 | 1009.5 |
| 20260509124534 | 13 | 17 | 0.0 | 0.0 | 0.00 | 0.30 | 0.00 | 96 | 1009.5 |
| 20260509123040 | 12 | 17 | 0.0 | 0.0 | 0.00 | 0.30 | 0.00 | 96 | 1009.3 |
| 20260509121526 | 12 | 17 | 0.0 | 0.0 | 0.00 | 0.30 | 0.00 | 95 | 1009.3 |
| 20260509120025 | 11 | 19 | 0.0 | 0.0 | 0.00 | 0.30 | 0.00 | 93 | 1009.2 |
| 20260509114525 | 11 | 24 | 0.0 | 0.0 | 0.00 | 0.30 | 0.00 | 93 | 1009.1 |
| 20260509113021 | 12 | 19 | 0.0 | 0.0 | 0.00 | 0.30 | 0.00 | 93 | 1008.9 |
| 20260509111536 | 12 | 21 | 0.0 | 0.0 | 0.00 | 0.30 | 0.00 | 93 | 1008.6 |
| 20260509110019 | 12 | 19 | 0.0 | 0.0 | 0.00 | 0.30 | 0.00 | 93 | 1008.5 |
| 20260509104526 | 12 | 22 | 0.0 | 0.0 | 0.00 | 0.30 | 0.00 | 93 | 1008.5 |
| 20260509103015 | 13 | 22 | 0.0 | 0.0 | 0.00 | 0.30 | 0.00 | 93 | 1008.7 |
| 20260509101516 | 13 | 22 | 0.0 | 0.0 | 0.00 | 0.30 | 0.00 | 93 | 1008.7 |
| 20260509100017 | 13 | 22 | 0.0 | 0.0 | 0.00 | 0.30 | 0.00 | 93 | 1009.1 |
| 20260509094511 | 13 | 22 | 0.0 | 0.0 | 0.00 | 0.30 | 0.00 | 93 | 1009.3 |
| 20260509093012 | 13 | 21 | 0.0 | 0.0 | 0.00 | 0.30 | 0.00 | 92 | 1009.3 |
| 20260509091509 | 13 | 20 | 0.0 | 0.0 | 0.00 | 0.30 | 0.00 | 92 | 1009.3 |
| 20260509090008 | 13 | 19 | 0.0 | 0.0 | 0.00 | 0.30 | 0.00 | 92 | 1009.1 |
| 20260509084508 | 13 | 21 | 0.0 | 0.0 | 0.00 | 0.30 | 0.00 | 92 | 1009.3 |
| 20260509083006 | 13 | 20 | 0.0 | 0.0 | 0.00 | 0.30 | 0.00 | 92 | 1009.2 |
| 20260509081507 | 13 | 19 | 0.0 | 0.0 | 0.00 | 0.30 | 0.00 | 92 | 1009.2 |
| 20260509080004 | 13 | 20 | 0.0 | 0.0 | 0.00 | 0.30 | 0.00 | 91 | 1009.3 |
| 20260509074603 | 14 | 22 | 0.0 | 0.0 | 0.00 | 0.30 | 0.00 | 91 | 1009.4 |
| 20260509073106 | 14 | 19 | 0.0 | 0.0 | 0.00 | 0.30 | 0.00 | 91 | 1009.6 |
| 20260509071557 | 14 | 17 | 0.0 | 0.0 | 0.00 | 0.30 | 0.00 | 91 | 1009.7 |
| 20260509070057 | 15 | 18 | 0.0 | 1.6 | 0.00 | 0.30 | 0.00 | 92 | 1009.8 |
| 20260509064555 | 15 | 15 | 0.0 | 0.0 | 0.00 | 0.30 | 0.00 | 92 | 1009.6 |
| 20260509063059 | 15 | 169 | 0.0 | 0.0 | 0.00 | 0.30 | 0.00 | 91 | 1009.6 |
| 20260509061606 | 15 | 169 | 0.0 | 0.0 | 0.00 | 0.30 | 0.00 | 91 | 1009.9 |
| 20260509060050 | 15 | 169 | 0.0 | 0.0 | 0.00 | 0.30 | 0.00 | 91 | 1009.7 |
| 20260509054557 | 15 | 169 | 0.0 | 0.0 | 0.00 | 0.30 | 0.00 | 91 | 1009.7 |
| 20260509053058 | 15 | 169 | 0.0 | 0.0 | 0.00 | 0.30 | 0.00 | 90 | 1009.7 |
| 20260509051550 | 16 | 169 | 0.0 | 1.6 | 0.00 | 0.30 | 0.00 | 90 | 1009.7 |
| 20260509050044 | 16 | 169 | 0.0 | 1.6 | 0.00 | 0.30 | 0.00 | 90 | 1009.6 |